Flag for United Kingdom Weather past 2 weeks in Liverpool, England, United Kingdom

Now
61 °F

Drizzle. Mostly cloudy.


Feels Like: 61 °F
Forecast: 51 / 62 °F
Wind: 2 mph from West

Location: Liverpool Airport

Current Time: Sep 20, 2014 at 1:16:06 AM

Latest Report: Sep 20, 2014 at 12:50 AM


Visibility: 1 mi

Pressure: 29.98 "Hg

Humidity: 100%

Dew point: 61 °F

Location of LiverpoolLocation

Historic Weather in Liverpool — Graph

°F

Liverpool temperature yesterday

Maximum temperature yesterday: 64 °F (at 1:20 PM)
Minimum temperature yesterday: 57 °F (at 1:50 AM)
Average temperature yesterday: 61 °F

Past Weeks' High & Low Weather Summary

 TemperatureHumidityPressure
High73 °F (Sep 18, 3:20 PM)100% (Sep 5, 7:20 AM)30.36 "Hg (Sep 5, 7:20 AM)
Low48 °F (Sep 10, 5:50 AM)50% (Sep 16, 2:20 PM)29.83 "Hg (Sep 18, 2:20 PM)
Average60 °F79%30.09 "Hg
* Reported Sep 5 12:20 AM — Sep 20 12:20 AM, Liverpool, Weather by CustomWeather, © 2014

Note: Actual official high and low records may vary slightly from our data, if they occured in-between our weather recording intervals... More about our weather records

Advertising

Liverpool weather history for previous 24 hours

 ConditionsComfort  
Time TempWeatherWind HumidityBarometerVisibility
12:20 AM
Sep 20
61 °FDrizzle. Mostly cloudy.1 mph100%29.98 "Hg1 mi
11:50 PM
Sep 19
61 °FDrizzle. Mostly cloudy.No wind94%29.98 "Hg1 mi
11:20 PM61 °FDrizzle. Mostly cloudy.2 mph94%29.98 "Hg1 mi
10:50 PM61 °FDrizzle. Mostly cloudy.1 mph100%29.95 "Hg1 mi
10:20 PM61 °FDrizzle. Fog.3 mph94%29.95 "Hg1 mi
9:50 PM61 °FDrizzle. Mostly cloudy.5 mph94%29.95 "Hg1 mi
9:20 PM63 °FLow clouds.5 mph88%29.95 "Hg3 mi
8:50 PM63 °FOvercast.6 mph88%29.95 "Hg3 mi
8:20 PM63 °FOvercast.5 mph88%29.95 "Hg3 mi
7:50 PM63 °FOvercast.2 mph88%29.92 "Hg3 mi
7:20 PM63 °FOvercast.2 mph88%29.92 "Hg3 mi
6:50 PM63 °FOvercast.2 mph88%29.92 "Hg3 mi
6:20 PM63 °FPartly sunny.3 mph88%29.92 "Hg3 mi
5:50 PM64 °FPartly sunny.6 mph83%29.92 "Hg4 mi
5:20 PM64 °FPartly sunny.6 mph83%29.89 "Hg3 mi
4:50 PM64 °FOvercast.2 mph78%29.89 "Hg4 mi
4:20 PM64 °FOvercast.3 mph78%29.89 "Hg4 mi
3:50 PM64 °FPartly sunny.3 mph78%29.89 "Hg4 mi
3:20 PM64 °FPartly sunny.3 mph78%29.89 "Hg4 mi
2:50 PM64 °FPartly sunny.3 mph78%29.89 "Hg4 mi
2:20 PM64 °FPartly sunny.3 mph78%29.89 "Hg4 mi
1:50 PM64 °FPartly sunny.5 mph78%29.89 "Hg4 mi
1:20 PM64 °FOvercast.5 mph78%29.92 "Hg4 mi
12:50 PM63 °FOvercast.5 mph77%29.89 "Hg4 mi
12:20 PM63 °FOvercast.6 mph77%29.89 "Hg4 mi
11:50 AM63 °FOvercast.7 mph83%29.89 "Hg4 mi
11:20 AM63 °FOvercast.6 mph83%29.89 "Hg4 mi
10:50 AM63 °FPartly sunny.6 mph83%29.89 "Hg4 mi
10:20 AM63 °FPartly sunny.5 mph83%29.89 "Hg4 mi
9:50 AM61 °FOvercast.5 mph88%29.89 "Hg3 mi
9:20 AM61 °FOvercast.7 mph88%29.89 "Hg3 mi
8:50 AM61 °FOvercast.6 mph88%29.89 "Hg3 mi
8:20 AM59 °FOvercast.6 mph94%29.89 "Hg3 mi
7:50 AM59 °FOvercast.6 mph94%29.89 "Hg3 mi
7:20 AM59 °FOvercast.7 mph88%29.89 "Hg3 mi
6:50 AM59 °FOvercast.8 mph88%29.89 "Hg3 mi
6:20 AM59 °FOvercast.7 mph94%29.86 "Hg3 mi
5:50 AM59 °FOvercast.9 mph94%29.86 "Hg4 mi
5:20 AM59 °FOvercast.9 mph88%29.86 "Hg4 mi
4:50 AM59 °FOvercast.8 mph88%29.86 "Hg4 mi
4:20 AM59 °FOvercast.10 mph94%29.86 "Hg4 mi
3:50 AM59 °FOvercast.10 mph94%29.86 "Hg4 mi
3:20 AM57 °FPassing clouds.8 mph100%29.86 "Hg4 mi
2:50 AM57 °FHaze.9 mph94%29.89 "Hg3 mi
2:20 AM57 °FHaze.9 mph94%29.86 "Hg3 mi
1:50 AM57 °FHaze.9 mph94%29.86 "Hg3 mi
1:20 AM59 °FHaze.9 mph94%29.86 "Hg3 mi
Weather by CustomWeather, © 2014

See weather overviewHow to use our weather pages